sat.trackr.live / text

‹ back to catalog

STARLINK-11253 [DTC]

NORAD 60935 · 2024-155M

PAYLOAD ACTIVE UNKNOWN

§ Identity

Operator
Country
US
Launch date
2024-08-31
Launch site
AFWTR
Launch vehicle
Mass (kg)
RCS (m²)

Purposes: comms

External: N2YO · Heavens-Above · Gunter

§ Orbital elements

Epoch: 2026-09-21T19:48:43.287264Z

Period
91.74 min
Inclination
53.1580°
Eccentricity
0.0000615
Mean motion
15.69724114 rev/d
Perigee alt
359.3 km
Apogee alt
360.1 km
Semi-major
6,737.8 km
B*
-2.1938e-5
RAAN
94.6726°
Arg perigee
94.1970°
Mean anomaly
265.9119°
Rev number
11,920

§ Raw data

STARLINK-11253 [DTC]1 60935U 24155M   26264.82550101 -.00003246  00000+0 -21938-4 0  99952 60935  53.1580  94.6726 0000615  94.1970 265.9119 15.69724114119209

JSON: /api/v1/satellites/60935 · /tle

For live sub-satellite position, see the globe view (requires WebGL).

§ Visibility from observer

Set your observer location to see the next 7 days of passes ≥ 10°. The values pass through the URL so the page stays shareable.

No JS? Fill the form by hand. The geolocation button needs JavaScript.